Regional Weather Roundup
Issued by NWS

Home | Current Version | Previous Version | Graphics & Text | Print | Product List | Glossary On
Versions: 1 2 3 4 5 6 7 8 9 10 11 12 13 14 15 16 17 18 19 20 21 22 23 24 25 26 27 28 29 30 31 32 33 34 35 36 37 38 39 40 41 42 43 44 45 46 47 48 49 50
000
ASUS43 KFSD 221302
RWRSD

WEATHER ROUNDUP FOR SOUTH DAKOTA
NATIONAL WEATHER SERVICE SIOUX FALLS SD
800 AM CDT MON SEP 22 2014

NOTE: "FAIR" INDICATES FEW OR NO CLOUDS BELOW 12,000 FEET WITH NO
SIGNIFICANT WEATHER AND/OR OBSTRUCTIONS TO VISIBILITY.


SDZ001>005-009-010-012>017-221400-
NORTHWEST AND NORTH CENTRAL SOUTH DAKOTA

CITY           SKY/WX    TMP DP  RH WIND       PRES   REMARKS
FAITH            N/A     49  39  68 SE14      30.11F
MOBRIDGE       CLEAR     50  48  93 SE10      30.14F
$$

SDZ012>016-024>037-041>051-057-063-072>074-221400-
SOUTHWEST AND SOUTH CENTRAL SOUTH DAKOTA

CITY           SKY/WX    TMP DP  RH WIND       PRES   REMARKS
RAPID CTY ARPT CLOUDY    53  40  61 SE7       30.11F
PIERRE         CLEAR     48  42  80 SE9       30.17F
CUSTER         CLOUDY    53  38  56 SW3       30.18F
ELLSWORTH AFB  MOCLDY    56  40  55 S16       30.09F
PHILIP         PTCLDY    47  40  76 E6        30.14F
PINE RIDGE     CLOUDY    61  41  47 S14G30    30.14F
WINNER         FAIR      56  43  61 S18       30.21F
$$

SDZ004>011-016>023-039-040-221400-
NORTHEAST SOUTH DAKOTA

CITY           SKY/WX    TMP DP  RH WIND       PRES   REMARKS
ABERDEEN       CLEAR     41  39  93 S8        30.22F
WATERTOWN      CLEAR     44  42  93 SE6       30.25S
SISSETON         N/A     54  47  77 W10       30.21S
$$

SDZ017-020-022-023-036>040-048>070-221400-
SOUTHEAST SOUTH DAKOTA

CITY           SKY/WX    TMP DP  RH WIND       PRES   REMARKS
SIOUX FALLS    PTCLDY    45  45 100 CALM      30.28S
HURON          CLEAR     44  41  89 SE5       30.24S
CHAMBERLAIN    CLEAR     44  42  90 CALM      30.22F
MITCHELL       CLEAR     43  41  93 SE3       30.26S
YANKTON          N/A     43  41  93 CALM      30.29R VSB<1/4
$$

ABBREVIATIONS USED IN REMARKS
   TC - TEMPERATURE IN CELSIUS
  WCI - WIND CHILL INDEX
   HX - HEAT INDEX
  VSB - VISIBILITY



USA.gov is the U.S. government's official web portal to all federal, state and local government web resources and services.